User: anonymous   Login
Location: Theydon Bois
(51.6750°N, 0.1050°E)
Time: 21:56:27
(UTC+01:00)
Language:

Cosmos 2237 Rocket - Orbit

View from above orbital plane
View from above orbital plane
View from above satellite
View from above satellite

Ground track
Ground track

The orbit data is extracted from the following two-line orbital elements,

1 22566U 93016B   17295.95259666 +.00000222 +00000-0 +13958-3 0  9997
2 22566 071.0061 158.7377 0012185 294.0282 065.9565 14.14949481269334
Epoch (UTC): 22 October 2017 22:51:44
Eccentricity: 0.0012185
inclination: 71.0061°
perigee height: 833 km
apogee height: 851 km
right ascension of ascending node: 158.7377°
argument of perigee: 294.0282°
revolutions per day: 14.14949481
mean anomaly at epoch: 65.9565°
orbit number at epoch: 26933

The dashed part of the orbit path shows where the satellite is in the earth's shadow,  

DLR